Torna al catalogo

DELTA 1 DEB

AttivoPO
NORAD 42562·DEBRIS·🇺🇸 United States

Lanciato Jul 23, 1972 da Vandenberg Space Force Base

Loading…

Prossimi Passaggi (prossime 24 ore)

TLE

AggiornatoSource: Space-Track

Epoca: Sep 12, 2026, 09:21 UTC

1 42562U 72058JV  26255.38980420  .00000482  00000-0  10663-3 0  9998
2 42562  98.8041 109.2464 0152675 114.1783 247.5459 14.55292248677781

Traccia DELTA 1 DEB in tempo reale con AllMySat

Download on the App Store